Tracking 17558 objects as of 14-February-2016
HD Live streaming from Space Station
objects crossing your sky now

SCOUT B-1 R/B

Track SCOUT B-1 R/B now!
10-day predictions


NORAD ID: 5438
Int'l Code: 1971-071B
Perigee: 632.4 km
Apogee: 785.9 km
Inclination: 50.1 °
Period: 98.8 minutes
Semi major axis: 7080 km
RCS: 0.747 m2 (medium)
Launch date: August 16, 1971
Source: United States (US)
Launch site: WALLOPS ISLAND (WLPIS)

Note: This is a ROCKET BODY
Your satellite tracking list
Your tracking list is empty





NASA's NSSDC Master Catalog

Two Line Element Set (TLE):
1 05438U 71071B   16045.17030757  .00000473  00000-0  13709-3 0  9999
2 05438  50.1476  75.0295 0108415 228.4171 130.7427 14.5726486134844
Source of the keplerian elements: AFSPC

N2YO: 334